Time,TemperatureF,DewpointF,PressureIn,WindDirection,WindDirectionDegrees,WindSpeedMPH,WindSpeedGustMPH,Humidity,HourlyPrecipIn,Conditions,Clouds,dailyrainin,SoftwareType,DateUTC
2013-04-13 00:02:00,62.0,48.0,29.91,ENE,76,4.0,6.0,61,0.00,,,0.00,,2013-04-13 05:02:00,
2013-04-13 00:12:00,62.0,48.0,29.91,ENE,76,4.0,6.0,61,0.00,,,0.00,,2013-04-13 05:12:00,
2013-04-13 00:22:00,61.0,48.0,29.91,East,86,2.0,6.0,63,0.00,,,0.00,,2013-04-13 05:22:00,
2013-04-13 00:32:00,61.0,49.0,29.91,ESE,117,2.0,5.0,64,0.00,,,0.00,,2013-04-13 05:32:00,
2013-04-13 00:43:00,61.0,49.0,29.91,ESE,117,2.0,5.0,64,0.00,,,0.00,,2013-04-13 05:43:00,
2013-04-13 00:52:00,61.0,49.0,29.91,ESE,115,2.0,5.0,64,0.00,,,0.00,,2013-04-13 05:52:00,
2013-04-13 01:02:00,61.0,49.0,29.92,ESE,117,5.0,8.0,64,0.00,,,0.00,,2013-04-13 06:02:00,
2013-04-13 01:12:00,61.0,49.0,29.92,ESE,117,5.0,8.0,64,0.00,,,0.00,,2013-04-13 06:12:00,
2013-04-13 01:23:00,60.0,48.0,29.92,ESE,107,5.0,10.0,65,0.00,,,0.00,,2013-04-13 06:23:00,
2013-04-13 01:34:00,60.0,48.0,29.92,East,94,3.0,6.0,65,0.00,,,0.00,,2013-04-13 06:34:00,
2013-04-13 01:47:00,60.0,48.0,29.92,East,94,3.0,6.0,65,0.00,,,0.00,,2013-04-13 06:47:00,
2013-04-13 01:53:00,60.0,48.0,29.92,ESE,103,4.0,7.0,64,0.00,,,0.00,,2013-04-13 06:53:00,
2013-04-13 02:05:00,61.0,48.0,29.92,ESE,105,4.0,6.0,63,0.00,,,0.00,,2013-04-13 07:05:00,
2013-04-13 02:14:00,61.0,48.0,29.92,ESE,105,4.0,6.0,63,0.00,,,0.00,,2013-04-13 07:14:00,
2013-04-13 02:23:00,61.0,48.0,29.91,East,90,5.0,8.0,62,0.00,,,0.00,,2013-04-13 07:23:00,
2013-04-13 02:34:00,61.0,48.0,29.91,SE,129,4.0,7.0,62,0.00,,,0.00,,2013-04-13 07:34:00,
2013-04-13 02:44:00,61.0,48.0,29.91,SE,129,4.0,7.0,62,0.00,,,0.00,,2013-04-13 07:44:00,
2013-04-13 02:54:00,60.0,47.0,29.91,ESE,113,7.0,11.0,62,0.00,,,0.00,,2013-04-13 07:54:00,
2013-04-13 03:06:00,60.0,47.0,29.91,ESE,104,3.0,7.0,63,0.00,,,0.00,,2013-04-13 08:06:00,
2013-04-13 03:15:00,60.0,47.0,29.91,ESE,104,3.0,7.0,63,0.00,,,0.00,,2013-04-13 08:15:00,
2013-04-13 03:25:00,60.0,47.0,29.90,SE,131,4.0,7.0,63,0.00,,,0.00,,2013-04-13 08:25:00,
2013-04-13 03:45:00,59.0,46.0,29.90,East,99,5.0,7.0,63,0.00,,,0.00,,2013-04-13 08:45:00,
2013-04-13 03:53:00,59.0,46.0,29.90,East,100,3.0,6.0,63,0.00,,,0.00,,2013-04-13 08:53:00,
2013-04-13 04:05:00,59.0,46.0,29.90,East,101,3.0,5.0,62,0.00,,,0.00,,2013-04-13 09:05:00,
2013-04-13 04:14:00,59.0,46.0,29.90,East,101,3.0,5.0,62,0.00,,,0.00,,2013-04-13 09:14:00,
2013-04-13 04:24:00,59.0,46.0,29.90,ESE,107,1.0,6.0,62,0.00,,,0.00,,2013-04-13 09:24:00,
2013-04-13 04:49:00,59.0,46.0,29.90,ESE,118,0.0,4.0,62,0.00,,,0.00,,2013-04-13 09:49:00,
2013-04-13 05:05:00,59.0,46.0,29.91,East,98,0.0,3.0,62,0.00,,,0.00,,2013-04-13 10:05:00,
2013-04-13 05:36:00,57.0,45.0,29.91,ESE,106,2.0,4.0,64,0.00,,,0.00,,2013-04-13 10:36:00,
2013-04-13 05:45:00,57.0,45.0,29.91,ESE,106,2.0,4.0,64,0.00,,,0.00,,2013-04-13 10:45:00,
2013-04-13 05:53:00,58.0,46.0,29.91,SE,127,1.0,4.0,64,0.00,,,0.00,,2013-04-13 10:53:00,
2013-04-13 06:05:00,57.0,45.0,29.91,East,79,0.0,2.0,65,0.00,,,0.00,,2013-04-13 11:05:00,
2013-04-13 06:13:00,57.0,45.0,29.91,East,79,0.0,2.0,65,0.00,,,0.00,,2013-04-13 11:13:00,
2013-04-13 06:23:00,57.0,46.0,29.91,East,81,0.0,2.0,66,0.00,,,0.00,,2013-04-13 11:23:00,
2013-04-13 06:34:00,56.0,46.0,29.92,ENE,76,0.0,1.0,68,0.00,,,0.00,,2013-04-13 11:34:00,
2013-04-13 06:44:00,56.0,46.0,29.92,ENE,76,0.0,1.0,68,0.00,,,0.00,,2013-04-13 11:44:00,
2013-04-13 06:53:00,56.0,46.0,29.92,ENE,78,0.0,1.0,68,0.00,,,0.00,,2013-04-13 11:53:00,
2013-04-13 07:08:00,55.0,46.0,29.93,ENE,67,0.0,2.0,71,0.00,,,0.00,,2013-04-13 12:08:00,
2013-04-13 07:15:00,55.0,46.0,29.93,ENE,67,0.0,2.0,71,0.00,,,0.00,,2013-04-13 12:15:00,
2013-04-13 07:24:00,55.0,47.0,29.93,East,79,0.0,2.0,73,0.00,,,0.00,,2013-04-13 12:24:00,
2013-04-13 07:35:00,54.0,46.0,29.94,East,88,1.0,2.0,75,0.00,,,0.00,,2013-04-13 12:35:00,
2013-04-13 07:46:00,54.0,46.0,29.94,East,88,1.0,2.0,75,0.00,,,0.00,,2013-04-13 12:46:00,
2013-04-13 07:54:00,55.0,47.0,29.95,East,91,1.0,3.0,74,0.00,,,0.00,,2013-04-13 12:54:00,
2013-04-13 08:05:00,55.0,46.0,29.96,East,84,2.0,4.0,72,0.00,,,0.00,,2013-04-13 13:05:00,
2013-04-13 08:15:00,55.0,46.0,29.96,East,84,2.0,4.0,72,0.00,,,0.00,,2013-04-13 13:15:00,
2013-04-13 08:26:00,56.0,47.0,29.96,East,91,3.0,4.0,73,0.00,,,0.00,,2013-04-13 13:26:00,
2013-04-13 08:34:00,56.0,47.0,29.97,ESE,107,4.0,5.0,72,0.00,,,0.00,,2013-04-13 13:34:00,
2013-04-13 08:47:00,56.0,47.0,29.97,ESE,107,4.0,5.0,72,0.00,,,0.00,,2013-04-13 13:47:00,
2013-04-13 09:04:00,59.0,49.0,29.98,East,98,5.0,7.0,69,0.00,,,0.00,,2013-04-13 14:04:00,
2013-04-13 09:14:00,59.0,49.0,29.98,East,98,5.0,7.0,69,0.00,,,0.00,,2013-04-13 14:14:00,
2013-04-13 09:23:00,60.0,49.0,29.98,East,81,4.0,6.0,67,0.00,,,0.00,,2013-04-13 14:23:00,
2013-04-13 09:45:00,62.0,50.0,29.98,East,96,1.0,5.0,65,0.00,,,0.00,,2013-04-13 14:45:00,
2013-04-13 09:54:00,63.0,50.0,29.98,ESE,105,3.0,6.0,62,0.00,,,0.00,,2013-04-13 14:54:00,
2013-04-13 10:04:00,64.0,50.0,29.98,East,87,2.0,6.0,60,0.00,,,0.00,,2013-04-13 15:04:00,
2013-04-13 10:14:00,64.0,50.0,29.98,East,87,2.0,6.0,60,0.00,,,0.00,,2013-04-13 15:14:00,
2013-04-13 10:28:00,65.0,49.0,29.98,East,89,4.0,7.0,56,0.00,,,0.00,,2013-04-13 15:28:00,
2013-04-13 10:35:00,67.0,49.0,29.97,SSE,162,3.0,10.0,53,0.00,,,0.00,,2013-04-13 15:35:00,
2013-04-13 10:54:00,68.0,49.0,29.96,SE,143,3.0,10.0,50,0.00,,,0.00,,2013-04-13 15:54:00,
2013-04-13 11:05:00,69.0,49.0,29.96,ESE,113,3.0,11.0,49,0.00,,,0.00,,2013-04-13 16:05:00,
2013-04-13 11:15:00,69.0,49.0,29.96,ESE,113,3.0,11.0,49,0.00,,,0.00,,2013-04-13 16:15:00,
2013-04-13 11:24:00,70.0,49.0,29.96,SSW,200,2.0,11.0,47,0.00,,,0.00,,2013-04-13 16:24:00,
2013-04-13 11:35:00,71.0,49.0,29.96,SSE,167,4.0,13.0,46,0.00,,,0.00,,2013-04-13 16:35:00,
2013-04-13 11:45:00,71.0,49.0,29.96,SSE,167,4.0,13.0,46,0.00,,,0.00,,2013-04-13 16:45:00,
2013-04-13 11:53:00,71.0,49.0,29.95,SE,126,6.0,13.0,45,0.00,,,0.00,,2013-04-13 16:53:00,
2013-04-13 12:20:00,72.0,48.0,29.94,SE,131,7.0,17.0,43,0.00,,,0.00,,2013-04-13 17:20:00,
2013-04-13 12:44:00,73.0,47.0,29.93,SE,139,9.0,17.0,40,0.00,,,0.00,,2013-04-13 17:44:00,
2013-04-13 13:05:00,74.0,46.0,29.91,SE,142,9.0,17.0,37,0.00,,,0.00,,2013-04-13 18:05:00,
2013-04-13 13:15:00,74.0,46.0,29.91,SE,142,9.0,17.0,37,0.00,,,0.00,,2013-04-13 18:15:00,
2013-04-13 13:24:00,75.0,46.0,29.90,SSE,150,7.0,16.0,36,0.00,,,0.00,,2013-04-13 18:24:00,
2013-04-13 13:33:00,75.0,47.0,29.89,ESE,117,7.0,16.0,37,0.00,,,0.00,,2013-04-13 18:33:00,
2013-04-13 13:42:00,75.0,47.0,29.89,ESE,117,7.0,16.0,37,0.00,,,0.00,,2013-04-13 18:42:00,
2013-04-13 13:52:00,76.0,46.0,29.88,ESE,111,6.0,14.0,35,0.00,,,0.00,,2013-04-13 18:52:00,
2013-04-13 14:03:00,76.0,47.0,29.87,ESE,114,7.0,18.0,36,0.00,,,0.00,,2013-04-13 19:03:00,
2013-04-13 14:12:00,76.0,47.0,29.87,ESE,114,7.0,18.0,36,0.00,,,0.00,,2013-04-13 19:12:00,
2013-04-13 14:22:00,76.0,48.0,29.86,SE,138,8.0,18.0,37,0.00,,,0.00,,2013-04-13 19:22:00,
2013-04-13 14:32:00,76.0,48.0,29.86,ESE,119,11.0,17.0,37,0.00,,,0.00,,2013-04-13 19:32:00,
2013-04-13 14:42:00,76.0,48.0,29.86,ESE,119,11.0,17.0,37,0.00,,,0.00,,2013-04-13 19:42:00,
2013-04-13 14:52:00,77.0,48.0,29.85,East,98,11.0,16.0,36,0.00,,,0.00,,2013-04-13 19:52:00,
2013-04-13 15:02:00,77.0,46.0,29.85,South,181,11.0,20.0,34,0.00,,,0.00,,2013-04-13 20:02:00,
2013-04-13 15:12:00,77.0,46.0,29.85,South,181,11.0,20.0,34,0.00,,,0.00,,2013-04-13 20:12:00,
2013-04-13 15:22:00,77.0,47.0,29.84,SE,135,8.0,16.0,35,0.00,,,0.00,,2013-04-13 20:22:00,
2013-04-13 15:32:00,77.0,48.0,29.83,SE,130,5.0,19.0,36,0.00,,,0.00,,2013-04-13 20:32:00,
2013-04-13 15:42:00,77.0,48.0,29.83,SE,130,5.0,19.0,36,0.00,,,0.00,,2013-04-13 20:42:00,
2013-04-13 15:52:00,78.0,49.0,29.82,ESE,113,10.0,17.0,36,0.00,,,0.00,,2013-04-13 20:52:00,
2013-04-13 16:02:00,78.0,47.0,29.82,ESE,103,9.0,18.0,34,0.00,,,0.00,,2013-04-13 21:02:00,
2013-04-13 16:12:00,78.0,47.0,29.82,ESE,103,9.0,18.0,34,0.00,,,0.00,,2013-04-13 21:12:00,
2013-04-13 16:22:00,78.0,47.0,29.81,East,98,6.0,17.0,34,0.00,,,0.00,,2013-04-13 21:22:00,
2013-04-13 16:32:00,78.0,48.0,29.80,ESE,102,13.0,17.0,35,0.00,,,0.00,,2013-04-13 21:32:00,
2013-04-13 16:43:00,78.0,48.0,29.80,ESE,102,13.0,17.0,35,0.00,,,0.00,,2013-04-13 21:43:00,
2013-04-13 16:52:00,78.0,47.0,29.80,ESE,117,10.0,16.0,34,0.00,,,0.00,,2013-04-13 21:52:00,
2013-04-13 17:03:00,78.0,46.0,29.79,SSE,148,10.0,19.0,32,0.00,,,0.00,,2013-04-13 22:03:00,
2013-04-13 17:12:00,78.0,46.0,29.79,SSE,148,10.0,19.0,32,0.00,,,0.00,,2013-04-13 22:12:00,
2013-04-13 17:22:00,78.0,46.0,29.78,SSE,148,10.0,21.0,32,0.00,,,0.00,,2013-04-13 22:22:00,
2013-04-13 17:33:00,78.0,46.0,29.78,East,87,8.0,14.0,32,0.00,,,0.00,,2013-04-13 22:33:00,
2013-04-13 17:42:00,78.0,46.0,29.78,East,87,8.0,14.0,32,0.00,,,0.00,,2013-04-13 22:42:00,
2013-04-13 17:52:00,77.0,46.0,29.78,South,172,12.0,22.0,33,0.00,,,0.00,,2013-04-13 22:52:00,
2013-04-13 18:02:00,77.0,46.0,29.77,ESE,111,11.0,18.0,33,0.00,,,0.00,,2013-04-13 23:02:00,
2013-04-13 18:12:00,77.0,46.0,29.77,ESE,111,8.0,17.0,34,0.00,,,0.00,,2013-04-13 23:12:00,
2013-04-13 18:22:00,77.0,46.0,29.77,ESE,111,8.0,17.0,34,0.00,,,0.00,,2013-04-13 23:22:00,
2013-04-13 18:32:00,77.0,47.0,29.76,ESE,105,8.0,17.0,35,0.00,,,0.00,,2013-04-13 23:32:00,
2013-04-13 18:42:00,77.0,47.0,29.76,ESE,105,8.0,17.0,35,0.00,,,0.00,,2013-04-13 23:42:00,
2013-04-13 18:52:00,78.0,48.0,29.77,South,180,7.0,14.0,35,0.00,,,0.00,,2013-04-13 23:52:00,
2013-04-13 19:02:00,77.0,48.0,29.77,ESE,113,10.0,20.0,36,0.00,,,0.00,,2013-04-14 00:02:00,
2013-04-13 19:12:00,77.0,48.0,29.77,ESE,113,10.0,20.0,36,0.00,,,0.00,,2013-04-14 00:12:00,
2013-04-13 19:22:00,76.0,47.0,29.76,SE,130,8.0,20.0,36,0.00,,,0.00,,2013-04-14 00:22:00,
2013-04-13 19:32:00,76.0,48.0,29.76,SE,138,8.0,18.0,37,0.00,,,0.00,,2013-04-14 00:32:00,
2013-04-13 19:42:00,76.0,48.0,29.76,SE,138,8.0,18.0,37,0.00,,,0.00,,2013-04-14 00:42:00,
2013-04-13 19:52:00,75.0,48.0,29.76,SE,131,7.0,14.0,38,0.00,,,0.00,,2013-04-14 00:52:00,
2013-04-13 20:02:00,75.0,48.0,29.76,SE,136,10.0,17.0,38,0.00,,,0.00,,2013-04-14 01:02:00,
2013-04-13 20:12:00,75.0,48.0,29.76,SE,136,10.0,17.0,38,0.00,,,0.00,,2013-04-14 01:12:00,
2013-04-13 20:22:00,74.0,47.0,29.75,SE,137,3.0,14.0,39,0.00,,,0.00,,2013-04-14 01:22:00,
2013-04-13 20:32:00,73.0,49.0,29.75,ESE,107,5.0,8.0,42,0.00,,,0.00,,2013-04-14 01:32:00,
2013-04-13 20:42:00,73.0,49.0,29.75,ESE,107,5.0,8.0,42,0.00,,,0.00,,2013-04-14 01:42:00,
2013-04-13 20:52:00,72.0,49.0,29.75,East,94,2.0,7.0,44,0.00,,,0.00,,2013-04-14 01:52:00,
2013-04-13 21:02:00,71.0,49.0,29.75,SE,130,4.0,8.0,45,0.00,,,0.00,,2013-04-14 02:02:00,
2013-04-13 21:12:00,71.0,49.0,29.75,ESE,117,3.0,7.0,46,0.00,,,0.00,,2013-04-14 02:12:00,
2013-04-13 21:22:00,71.0,49.0,29.75,ESE,117,3.0,7.0,46,0.00,,,0.00,,2013-04-14 02:22:00,
2013-04-13 21:32:00,70.0,49.0,29.75,ESE,120,3.0,6.0,47,0.00,,,0.00,,2013-04-14 02:32:00,
2013-04-13 21:42:00,70.0,49.0,29.75,ESE,120,3.0,6.0,47,0.00,,,0.00,,2013-04-14 02:42:00,
2013-04-13 21:52:00,70.0,49.0,29.75,East,88,3.0,6.0,48,0.00,,,0.00,,2013-04-14 02:52:00,
2013-04-13 22:02:00,69.0,49.0,29.75,ESE,120,2.0,7.0,49,0.00,,,0.00,,2013-04-14 03:02:00,
2013-04-13 22:12:00,69.0,49.0,29.75,ESE,120,2.0,7.0,49,0.00,,,0.00,,2013-04-14 03:12:00,
2013-04-13 22:22:00,69.0,50.0,29.76,SE,131,4.0,7.0,50,0.00,,,0.00,,2013-04-14 03:22:00,
2013-04-13 22:33:00,69.0,50.0,29.75,East,88,5.0,10.0,51,0.00,,,0.00,,2013-04-14 03:33:00,
2013-04-13 22:42:00,69.0,50.0,29.75,East,88,5.0,10.0,51,0.00,,,0.00,,2013-04-14 03:42:00,
2013-04-13 22:53:00,69.0,50.0,29.76,SSE,165,7.0,16.0,50,0.00,,,0.00,,2013-04-14 03:53:00,
2013-04-13 23:02:00,70.0,49.0,29.76,East,84,7.0,12.0,48,0.00,,,0.00,,2013-04-14 04:02:00,
2013-04-13 23:12:00,70.0,49.0,29.76,East,84,7.0,12.0,48,0.00,,,0.00,,2013-04-14 04:12:00,
2013-04-13 23:23:00,69.0,49.0,29.76,South,187,7.0,13.0,49,0.00,,,0.00,,2013-04-14 04:23:00,
2013-04-13 23:32:00,69.0,50.0,29.75,SE,133,5.0,13.0,50,0.00,,,0.00,,2013-04-14 04:32:00,
2013-04-13 23:43:00,69.0,50.0,29.75,SE,133,5.0,13.0,50,0.00,,,0.00,,2013-04-14 04:43:00,
2013-04-13 23:52:00,68.0,49.0,29.75,SE,138,3.0,9.0,50,0.00,,,0.00,,2013-04-14 04:52:00,